Weather History for KITH - December, 2012

Change the Weather History Date:

Sunday, December 9, 2012

  Actual Average Record
Temperature  
Mean Temperature 35 °F -  
Max Temperature 39 °F 38 °F 64 °F (1966)
Min Temperature 32 °F 23 °F -1 °F (1989)
Degree Days  
Heating Degree Days 30    
Moisture  
Dew Point 30 °F    
Average Humidity 81    
Maximum Humidity 100    
Minimum Humidity 65    
Precipitation  
Precipitation 0.00 in - - ()
Sea Level Pressure  
Sea Level Pressure 30.16 in    
Wind  
Wind Speed 9 mph (East)    
Max Wind Speed 18 mph    
Max Gust Speed 23 mph    
Visibility 10 miles    
Events Rain    
Averages and records for this station are not official NWS values.
T = Trace of Precipitation, MM = Missing Value Source: NWS Daily Summary

Daily Weather History Graph

Daily Weather History Graph

Search for Another Location

Airport or City:

Trip Planner

Search our weather history database for the weather conditions in past years. The results will help you decide how hot, cold, wet, or windy it might be!

Date:

Astronomy

Dec. 09, 2012 Rise Set
Actual Time 7:24 AM EST 4:32 PM EST
Civil Twilight 6:52 AM EST 5:04 PM EST
Nautical Twilight 6:16 AM EST 5:39 PM EST
Astronomical Twilight 5:42 AM EST 6:14 PM EST
Moon 2:50 AM EST (12/9) 1:41 PM EST (12/9)
Length of Visible Light 10h 12m
Length of Day
9h 08m
Waning Crescent, 19% of the Moon is Illuminated
Dec 9
Waning Crescent
Dec 13
New
Dec 20
First Quarter
Dec 28
Full
Jan 4
Last Quarter

Hourly Weather History & Observations

Time (EST) Temp. Windchill Dew Point Humidity Pressure Visibility Wind Dir Wind Speed Gust Speed Precip Events Conditions
12:16 AM 35.6 °F 27.1 °F 33.8 °F 93% 30.11 in 10.0 mi NW 12.7 mph - N/A   Overcast
12:56 AM 34.9 °F 25.3 °F 32.0 °F 89% 30.16 in 10.0 mi NW 15.0 mph - N/A   Overcast
1:19 AM 35.6 °F 29.9 °F 30.2 °F 81% 30.14 in 10.0 mi NW 6.9 mph - N/A   Overcast
2:56 AM 32.9 °F 25.3 °F 28.0 °F 82% 30.21 in 10.0 mi NNW 9.2 mph - N/A   Overcast
3:56 AM 32.9 °F 25.9 °F 28.0 °F 82% 30.21 in 10.0 mi NW 8.1 mph - N/A   Overcast
4:56 AM 32.0 °F 24.8 °F 28.0 °F 85% 30.25 in 10.0 mi NW 8.1 mph - N/A   Overcast
5:56 AM 32.0 °F 28.7 °F 28.0 °F 85% 30.26 in 10.0 mi NNW 3.5 mph - N/A   Overcast
6:22 AM 32.0 °F 26.4 °F 28.4 °F 87% 30.23 in 10.0 mi NNW 5.8 mph - N/A   Overcast
6:56 AM 32.0 °F 28.7 °F 28.0 °F 85% 30.27 in 10.0 mi North 3.5 mph - N/A   Overcast
7:56 AM 32.0 °F 28.7 °F 28.0 °F 85% 30.28 in 10.0 mi NNW 3.5 mph - N/A   Overcast
8:56 AM 32.0 °F 27.5 °F 29.1 °F 89% 30.29 in 10.0 mi North 4.6 mph - N/A   Overcast
9:56 AM 34.0 °F 28.8 °F 28.0 °F 79% 30.30 in 10.0 mi East 5.8 mph - N/A   Overcast
10:28 AM 35.6 °F 28.0 °F 28.4 °F 75% 30.25 in 10.0 mi SE 10.4 mph - N/A   Mostly Cloudy
10:56 AM 34.9 °F 30.8 °F 29.1 °F 79% 30.27 in 10.0 mi NNE 4.6 mph - N/A   Mostly Cloudy
11:29 AM 35.6 °F 30.7 °F 28.4 °F 75% 30.22 in 10.0 mi Variable 5.8 mph - N/A   Overcast
11:56 AM 36.9 °F 33.1 °F 28.0 °F 70% 30.25 in 10.0 mi SSE 4.6 mph - N/A   Overcast
12:56 PM 37.9 °F 33.5 °F 29.1 °F 71% 30.21 in 10.0 mi ESE 5.8 mph - N/A   Mostly Cloudy
1:56 PM 38.8 °F 35.4 °F 29.1 °F 68% 30.19 in 10.0 mi SE 4.6 mph - N/A   Mostly Cloudy
2:56 PM 38.8 °F 35.4 °F 29.1 °F 68% 30.18 in 10.0 mi East 4.6 mph - N/A   Overcast
3:56 PM 38.8 °F 36.5 °F 29.1 °F 68% 30.16 in 10.0 mi ESE 3.5 mph - N/A   Overcast
4:56 PM 38.8 °F 36.5 °F 28.0 °F 65% 30.15 in 10.0 mi East 3.5 mph - N/A   Overcast
5:56 PM 37.9 °F 32.1 °F 30.0 °F 73% 30.12 in 10.0 mi ESE 8.1 mph - 0.00 in Rain Light Rain Showers
6:56 PM 38.8 °F 32.6 °F 30.0 °F 71% 30.08 in 10.0 mi ESE 9.2 mph - 0.00 in   Overcast
7:56 PM 37.9 °F 30.5 °F 32.0 °F 79% 30.04 in 10.0 mi SE 11.5 mph - N/A   Overcast
8:56 PM 37.9 °F 28.5 °F 32.9 °F 82% 30.01 in 10.0 mi SSE 17.3 mph 23.0 mph 0.00 in Rain Light Rain Showers
9:56 PM 37.9 °F 30.0 °F 34.9 °F 89% 29.98 in 10.0 mi SSE 12.7 mph 21.9 mph 0.00 in Rain Light Rain
10:47 PM 37.4 °F 28.5 °F 37.4 °F 100% 29.92 in 10.0 mi SSE 15.0 mph - 0.00 in Rain Light Rain
10:56 PM 38.8 °F 29.4 °F 36.9 °F 93% 29.94 in 10.0 mi SSE 18.4 mph - 0.00 in Rain Light Rain
11:56 PM 39.9 °F 31.8 °F 37.9 °F 93% 29.90 in 10.0 mi SSE 15.0 mph 23.0 mph 0.00 in   Overcast